COSMOS 2148

Satellite information

Favourite Embed

Satellite Type and Status

PAYLOADIN ORBIT

Key statistics

Satellite COSMOS 2148 at a glance.

Uptime

12472

Days in orbit

Revolutions

≈ 12.7

Per day

Orbit

LEO

Low Earth Orbit

Inclination

82.6

Latest

Satellite identification and parameters

Extended collection of information and parameters for COSMOS 2148.

Object identification

Identified? True

Debris? False

Object name: COSMOS 2148

International designator: 1991-033F

Object number (NORAD): 21304

Object ID (CCSDS): 21304

Country: COMMONWEALTH OF INDEPENDENT STATES (CIS)

Current information (Y/N): Y

RCS size: LARGE

Orbital parameters

Period: 113.746 minutes

Inclination: 82.5738 deg

SMA: 7776.493 km

Apoapsis: 1417.1 km

Periapsis: 1379.617 km

RAAN: 131.3675 deg

Eccentricy: 0.00241

Argument of periapsis: 21.7038 deg

Mean anomaly: 46.9354 deg

Mean motion: 12.65980614 rev/day

Mean motion (dot): 0.00000001 rev/day2

B* drag term: -0.000053315 1/REarth

Two-line elements (TLE)

Creation date: July 8, 2025, 2:27 a.m.

Reference frame: TEME

Reference center: EARTH

Epoch: July 7, 2025, 10:36 p.m. UTC

TLE line 0: 0 COSMOS 2148

TLE line 1: 1 21304U 91033F 25188.94215543 .00000001 00000-0 -53315-4 0 9996

TLE line 2: 2 21304 82.5738 131.3675 0024100 21.7038 46.9354 12.65980614577540

Live tracking on map

Real-time ground track for satellite COSMOS 2148.

In-orbit conjunctions

There are no conjunctions computed for COSMOS 2148, at the moment. Check back to stay up to date, as we update our databases every day.

Go to all conjunctions

Associated space launch

Second generation store-dump military communications satellite

COSMOS 2148 was lifted into orbit during the mission ‘Tsiklon-3 | Strela-3 61 to 66’, on board a Tsiklon-3 space rocket.

The launch took place on May 16, 1991, 9:40 p.m. from 32/2.

For more information about the launch, click the button.

Launch to space Tsiklon-3 | Strela-3 61 to 66
Tsiklon-3 | Strela-3 61 to 66

Agency: N/A

Status: Launch Successful

Launch date: May 16, 1991, 9:40 p.m. UTC

Rocket: Tsiklon-3

Launch pad: 32/2

Location: Plesetsk Cosmodrome, Russian Federation

...

Latest news about this satellite

There are no fresh news available about this satellite. Check back as we update our databases every day.


Newsletter sign-up

Weekly statistics, charts and insights to help you stay on top of the space industry.